Weather Roundup
Issued by NWS Springfield, MO

Home | Current Version | Previous Version | Text Only | Print | Product List | Glossary On
Versions: 1 2 3 4 5 6 7 8 9 10 11 12 13 14 15 16 17 18 19 20 21 22 23 24 25 26 27 28 29 30 31 32 33 34 35 36 37 38 39 40 41 42 43 44 45 46 47 48 49 50
000
NZUS99 KSGF 160507
HRRSGF

HOURLY WEATHER
NATIONAL WEATHER SERVICE SPRINGFIELD MO
1100 PM CST FRI DEC 15 2017

......SGF CWA......

CITY           SKY/WX    TMP DP  RH WIND       PRES   REMARKS
SPRINGFIELD    CLEAR     33  25  72 S9        30.06S WCI  25
JOPLIN         CLEAR     40  26  57 S16       30.06F WCI  31
WEST PLAINS    CLEAR     33  24  69 SW5       30.11S WCI  29
ROLLA          CLEAR     33  25  72 SW13      30.04F WCI  24
OSAGE BEACH    CLEAR     33  24  69 S8        30.05S WCI  26
BRANSON        MOCLDY    36  27  69 SW5       30.11S WCI  32

......SURROUNDING SGF CWA......

CITY           SKY/WX    TMP DP  RH WIND       PRES   REMARKS
CHANUTE        CLEAR     38  23  55 S15       30.02R WCI  29
PARSONS        CLEAR     36  25  64 S8        30.05S WCI  30
COFFEYVILLE    CLEAR     39  24  55 S13       30.05F WCI  31
EMPORIA        CLEAR     38  24  57 S18G29    29.93F WCI  28
GROVE OK       CLEAR     36  28  75 CALM      30.12R
ROGERS AR      CLEAR     34  26  72 S9        30.12S WCI  27
SILOAM SPRINGS CLOUDY    33  26  75 S9        30.13R WCI  25
HARRISON AR    CLOUDY    36  26  67 S5        30.12R WCI  32
NEAR YELLVILLE CLEAR     34  25  69 CALM      30.14S

......KANSAS AND MISSOURI......

CITY           SKY/WX    TMP DP  RH WIND       PRES   REMARKS
KANSAS CTY INT CLEAR     39  25  57 SW15      29.91S WCI  31
DOWNTOWN KC    CLEAR     44  25  47 SW17G24   29.93S
COLUMBIA       CLEAR     35  26  69 S13       30.00S WCI  26
SEDALIA        CLEAR     40  26  57 SW15      29.99F WCI  32
ST JOSEPH      CLEAR     40  27  59 SW14      29.88S WCI  32
ST LOUIS       CLEAR     37  26  64 SW9       30.05S WCI  30
SPIRIT OF STL  CLEAR     26  23  88 VRB3      30.04F
KIRKSVILLE     CLEAR     36  27  69 SW13      29.90S WCI  27
WICHITA        CLEAR     38  25  59 S13       29.96F WCI  30
TOPEKA         CLEAR    N/A N/A N/A SW10      29.91F
OLATHE         CLEAR     38  26  62 S10       29.94F WCI  31

......TENNESSEE......

CITY           SKY/WX    TMP DP  RH WIND       PRES   REMARKS
MEMPHIS        CLEAR     37  27  67 S13G20    30.20S WCI  29
NASHVILLE      CLEAR     29  22  75 S6        30.22R WCI  23

......ARKANSAS.......

CITY           SKY/WX    TMP DP  RH WIND       PRES   REMARKS
FAYETTEVILLE   CLOUDY    26  24  92 CALM      30.13S
FT SMITH       CLOUDY    32  26  78 CALM      30.16S
LITTLE ROCK    CLEAR     36  30  79 S7        30.19F WCI  30

......OKLAHOMA.......

CITY           SKY/WX    TMP DP  RH WIND       PRES   REMARKS
TULSA          CLEAR     41  22  46 S12       30.10S
PONCA CITY     CLEAR     40  23  50 S7        30.04R
MCALESTER      CLOUDY    37  24  59 SW6       30.16S WCI  32
OKLAHOMA CITY  CLEAR     37  22  54 S10       30.08F WCI  30

......IOWA............

CITY           SKY/WX    TMP DP  RH WIND       PRES   REMARKS
DES MOINES     CLOUDY    37  23  56 SW13      29.77F WCI  29
QUAD CITIES    CLOUDY    38  22  52 S14       29.86F WCI  30

......ILLINOIS........

CITY           SKY/WX    TMP DP  RH WIND       PRES   REMARKS
QUINCY         CLEAR     35  24  64 S14       29.95S WCI  26
CHICAGO        CLOUDY    37  21  52 SW13G21   29.87F WCI  29



USA.gov is the U.S. government's official web portal to all federal, state and local government web resources and services.